[[{"header":{"parameterUnit":"m.s-1","parameterCategory":1,"la1":30.2991,"la2":30.254,"lo1":-89.0895,"lo2":-89.0444,"dy":0.0017,"dx":0.0017,"nx":28,"ny":28,"refTime":"2026-03-03T09:00:00:Z","depth":0,"parameterNumber":2,"parameterNumberName":"U-component_of_WINDS"},"data":[0,0,0,0,0,0,0,0,0,0,0,0,0,0,0,0,0,0,0,0,0,0,0,0,0,0,0,0,0,0,0,0,0,0,0,0,0,0,0,0,0,0,0,0,0,0,0,0,0,0,0,0,0,0,0,0,0,0,-2.2675,-2.2675,0,-2.2682,-2.2682,-2.2682,-2.2673,-2.2672,-2.2672,-2.2672,-2.268,-2.2681,-2.2681,0,0,0,0,0,0,0,0,0,0,0,0,0,-2.2657,-2.2658,-2.2675,-2.2675,-2.2675,-2.2682,-2.2682,-2.2682,-2.2673,-2.2672,-2.2672,-2.2671,-2.268,-2.2681,-2.2681,0,0,0,0,0,0,0,0,0,0,0,0,0,-2.2665,-2.2658,-2.2675,-2.2671,-2.2671,-2.2682,-2.2682,-2.2682,-2.2673,-2.2672,-2.2672,-2.2671,-2.268,-2.2681,-2.2681,-2.2697,0,0,-2.2684,-2.2684,0,0,0,0,0,0,0,0,-2.2664,-2.2665,-2.2671,-2.2671,-2.2671,-2.2676,-2.2679,-2.2687,-2.2673,-2.2672,-2.2672,-2.2671,-2.2679,-2.268,-2.2682,-2.2697,-2.2697,-2.2684,-2.2684,-2.2685,-2.2685,0,0,0,0,0,0,0,-2.2664,-2.2665,-2.2677,-2.2672,-2.2671,-2.267,-2.2671,-2.268,-2.2678,-2.2672,-2.2671,-2.2672,-2.2679,-2.2682,-2.2683,-2.2697,-2.2684,-2.2685,-2.2685,-2.2685,-2.2728,-2.2729,0,0,0,0,0,0,-2.2663,-2.2665,-2.2677,-2.2678,-2.2666,-2.2671,-2.2672,-2.2675,-2.2678,-2.2678,-2.2673,-2.2672,-2.2681,-2.2682,-2.2683,-2.2702,-2.2685,-2.2686,-2.2686,-2.2728,-2.2729,-2.2729,0,0,0,0,0,0,-2.2663,-2.2664,-2.2677,-2.2671,-2.2673,-2.2672,-2.2675,-2.2675,-2.2678,-2.2679,-2.2679,-2.2675,-2.268,-2.2682,-2.2694,-2.2703,-2.2686,-2.2687,-2.2727,-2.2728,-2.2729,-2.2741,0,0,0,0,0,0,-2.2662,-2.2664,-2.2669,-2.2671,-2.2673,-2.2686,-2.2676,-2.2676,-2.2679,-2.2678,-2.2681,-2.2681,-2.268,-2.2693,-2.2695,-2.2703,-2.2687,-2.2726,-2.2727,-2.2729,-2.274,-2.2742,-2.2744,0,0,0,0,0,-2.2662,-2.2672,-2.2669,-2.2671,-2.2678,-2.2687,-2.2688,-2.2686,-2.268,-2.2685,-2.2687,-2.2681,-2.2702,-2.2694,-2.2696,-2.2705,-2.2726,-2.2727,-2.2729,-2.2739,-2.2742,-2.2744,0,0,0,0,0,0,-2.267,-2.2672,-2.2669,-2.2679,-2.2683,-2.2685,-2.2692,-2.2688,-2.2694,-2.2693,-2.269,-2.2691,-2.2705,-2.2706,-2.2698,-2.2722,-2.2713,-2.2715,-2.272,-2.2723,-2.2725,-2.2724,-2.2688,0,0,0,0,0,-2.2673,-2.2679,-2.2681,-2.269,-2.2692,-2.2692,-2.2695,-2.2694,-2.2697,-2.2699,-2.2701,-2.2706,-2.2714,-2.2718,-2.2725,-2.2741,-2.2742,-2.2748,-2.2751,-2.2753,-2.2754,-2.2765,-2.2768,-2.2734,-2.2734,-2.2734,0,0,-2.2679,-2.2681,-2.2684,-2.2692,-2.2694,-2.2702,-2.2693,-2.2701,-2.2707,-2.27,-2.2712,-2.2714,-2.272,-2.2734,-2.274,-2.2736,-2.2764,-2.2754,-2.2756,-2.2756,-2.2766,-2.277,-2.2772,-2.2735,-2.2735,-2.2735,0,0,-2.2694,-2.2695,-2.2704,-2.2708,-2.2712,-2.2713,-2.2715,-2.2719,-2.272,-2.2732,-2.2728,-2.2736,-2.2749,-2.2754,-2.2758,-2.2779,-2.2775,-2.2782,-2.2793,-2.2803,-2.2806,-2.2808,-2.2817,-2.282,-2.2783,-2.2784,-2.2784,0,-2.2701,-2.2711,-2.2709,-2.2718,-2.2722,-2.2718,-2.2728,-2.2732,-2.2739,-2.2742,-2.2737,-2.2755,-2.2759,-2.2775,-2.2781,-2.2784,-2.2788,-2.278,-2.2806,-2.2808,-2.281,-2.2819,-2.2822,-2.2784,-2.2784,-2.2784,-2.2784,0,-2.272,-2.2728,-2.2735,-2.2742,-2.2747,-2.2756,-2.2758,-2.2764,-2.2763,-2.2765,-2.2778,-2.2783,-2.2792,-2.2796,-2.2794,-2.2813,-2.2811,-2.2806,-2.2796,-2.2814,-2.2822,-2.2825,-2.2785,-2.2785,-2.2785,-2.2785,0,0,-2.2737,-2.2746,-2.2748,-2.2752,-2.2759,-2.2766,-2.2777,-2.2785,-2.2791,-2.2798,-2.2807,-2.282,-2.2817,-2.2822,-2.2822,-2.2831,-2.285,-2.2825,-2.2826,-2.283,-2.2872,-2.2875,-2.2879,-2.2848,-2.2849,-2.2849,-2.2872,0,-2.2752,-2.2769,-2.277,-2.2787,-2.2795,-2.2793,-2.2803,-2.2809,-2.2812,-2.2821,-2.2825,-2.2834,-2.2829,-2.2832,-2.2841,-2.2845,-2.2858,-2.2844,-2.2858,-2.2858,-2.2856,-2.2883,-2.2885,-2.2906,-2.2875,-2.2875,-2.2876,0,-2.2771,-2.2779,-2.2796,-2.2805,-2.2808,-2.2817,-2.2827,-2.2835,-2.2843,-2.2845,-2.2852,-2.2852,-2.2865,-2.2857,-2.2876,-2.2866,-2.2873,-2.2876,-2.2877,-2.2877,-2.2867,-2.2884,-2.2913,-2.2916,-2.288,-2.288,-2.288,0,-2.2783,-2.2797,-2.281,-2.2814,-2.2824,-2.283,-2.2835,-2.2843,-2.2849,-2.2859,-2.2863,-2.2874,-2.288,-2.289,-2.2893,-2.2886,-2.2913,-2.2904,-2.2915,-2.2915,-2.292,-2.2919,-2.295,-2.2925,-2.2925,-2.2925,-2.2925,0,-2.2799,-2.281,-2.2816,-2.2824,-2.2837,-2.2839,-2.2853,-2.2857,-2.2865,-2.2875,-2.2875,-2.2885,-2.2889,-2.29,-2.2903,-2.2919,-2.2922,-2.2925,-2.2925,-2.2924,-2.2924,-2.2928,-2.2926,-2.2926,-2.2925,-2.2925,-2.2925,0,-2.2813,-2.2817,-2.2831,-2.2841,-2.2843,-2.2853,-2.2861,-2.287,-2.2874,-2.2887,-2.2891,-2.2898,-2.2911,-2.2916,-2.2932,-2.2934,-2.2954,-2.2953,-2.295,-2.295,-2.2962,-2.296,-2.2995,-2.3001,-2.2972,-2.2972,-2.2973,0,-2.2823,-2.2832,-2.2843,-2.2849,-2.2854,-2.2865,-2.2872,-2.2876,-2.2884,-2.2896,-2.2904,-2.2917,-2.2928,-2.295,-2.2957,-2.297,-2.297,-2.2982,-2.2972,-2.2971,-2.2971,-2.297,-2.2971,-2.2983,-2.2983,-2.2983,-2.2983,0,-2.2841,-2.2843,-2.2853,-2.2864,-2.2873,-2.2882,-2.2891,-2.2897,-2.2903,-2.2912,-2.2926,-2.2935,-2.2952,-2.2966,-2.298,-2.2987,-2.2987,-2.2987,-2.299,-2.2989,-2.2987,-2.2989,-2.2955,-2.2986,-2.2985,-2.2985,-2.2985,-2.2985,-2.2853,-2.2862,-2.2871,-2.2883,-2.2891,-2.29,-2.2909,-2.2916,-2.2927,-2.2941,-2.2944,-2.2959,-2.2971,-2.299,-2.2997,-2.301,-2.3007,-2.3012,-2.3013,-2.3014,-2.3015,-2.2986,-2.3013,-2.3013,-2.3013,-2.3013,-2.3013,0,-2.2871,-2.2878,-2.2889,-2.2902,-2.2912,-2.2912,-2.2923,-2.2932,-2.2945,-2.2956,-2.2967,-2.2985,-2.2999,-2.3009,-2.3024,-2.3033,-2.3033,-2.3037,-2.3036,-2.3038,-2.3017,-2.3012,-2.3036,-2.3036,-2.3036,-2.3036,-2.3036,-2.3036,-2.2881,-2.2896,-2.2901,-2.292,-2.2928,-2.2942,-2.2949,-2.2958,-2.2967,-2.2986,-2.2999,-2.3005,-2.3016,-2.3033,-2.3047,-2.3049,-2.3055,-2.3059,-2.3061,-2.3041,-2.3039,-2.3036,-2.3032,-2.306,-2.306,-2.3081,-2.3081,-2.3081]},{"header":{"parameterUnit":"m.s-1","parameterCategory":1,"la1":30.2991,"la2":30.254,"lo1":-89.0895,"lo2":-89.0444,"dy":0.0017,"dx":0.0017,"nx":28,"ny":28,"refTime":"2026-03-03T09:00:00:Z","depth":0,"parameterNumber":3,"parameterNumberName":"V-component_of_WINDS"},"data":[0,0,0,0,0,0,0,0,0,0,0,0,0,0,0,0,0,0,0,0,0,0,0,0,0,0,0,0,0,0,0,0,0,0,0,0,0,0,0,0,0,0,0,0,0,0,0,0,0,0,0,0,0,0,0,0,0,0,0.8849,0.885,0,0.8917,0.8917,0.8918,0.9033,0.9036,0.9038,0.904,0.9105,0.9104,0.9104,0,0,0,0,0,0,0,0,0,0,0,0,0,0.8817,0.8817,0.8849,0.885,0.8851,0.8917,0.8918,0.8918,0.9033,0.9036,0.9038,0.9041,0.9105,0.9104,0.9104,0,0,0,0,0,0,0,0,0,0,0,0,0,0.8852,0.8817,0.8849,0.8916,0.8923,0.8916,0.8918,0.8919,0.9032,0.9036,0.9039,0.9042,0.9105,0.9104,0.9104,0.9036,0,0,0.9103,0.9102,0,0,0,0,0,0,0,0,0.885,0.8853,0.8906,0.8912,0.8919,0.897,0.893,0.8958,0.9032,0.8991,0.904,0.9044,0.9057,0.9061,0.9066,0.9039,0.9042,0.9103,0.9102,0.9102,0.9102,0,0,0,0,0,0,0,0.8847,0.8851,0.8876,0.8906,0.8914,0.8942,0.895,0.8936,0.9005,0.8995,0.9003,0.901,0.9061,0.9066,0.9068,0.9043,0.9103,0.9102,0.9102,0.9102,0.8964,0.896,0,0,0,0,0,0,0.8835,0.8848,0.8874,0.8878,0.8892,0.894,0.8949,0.895,0.9005,0.9017,0.9007,0.9015,0.9065,0.9069,0.9071,0.8996,0.9102,0.9102,0.9101,0.8967,0.8963,0.8959,0,0,0,0,0,0,0.8834,0.8837,0.8871,0.8865,0.8872,0.8937,0.8937,0.895,0.8955,0.9015,0.9027,0.8999,0.9068,0.9072,0.9044,0.8999,0.9101,0.9101,0.8971,0.8966,0.8961,0.8843,0,0,0,0,0,0,0.8833,0.8835,0.8811,0.8864,0.8872,0.8844,0.8934,0.8949,0.8955,0.8966,0.9011,0.9021,0.9071,0.9044,0.9044,0.9001,0.9101,0.8975,0.8969,0.8963,0.8852,0.8835,0.8821,0,0,0,0,0,0.8831,0.8775,0.8809,0.8812,0.8843,0.8841,0.8846,0.8905,0.895,0.8926,0.8964,0.902,0.9004,0.904,0.9041,0.8997,0.8978,0.897,0.8963,0.8858,0.8838,0.8821,0,0,0,0,0,0,0.8714,0.8783,0.8822,0.8781,0.8805,0.8861,0.8832,0.8881,0.8891,0.8901,0.8973,0.8982,0.8945,0.8968,0.9007,0.8934,0.9,0.8992,0.892,0.8901,0.8886,0.8881,0.91,0,0,0,0,0,0.8683,0.8677,0.8738,0.8695,0.8705,0.8766,0.8768,0.8811,0.8838,0.8848,0.8884,0.8906,0.8907,0.8905,0.8909,0.8855,0.8866,0.8825,0.881,0.8797,0.8789,0.8762,0.8744,0.8934,0.8934,0.8934,0,0,0.862,0.8657,0.8649,0.8673,0.8696,0.8687,0.8774,0.8761,0.8754,0.8846,0.8823,0.8849,0.8879,0.8838,0.8822,0.8856,0.8739,0.8787,0.8776,0.8776,0.8752,0.8734,0.8718,0.8929,0.893,0.8931,0,0,0.85,0.8528,0.8496,0.8518,0.8552,0.8593,0.8585,0.8634,0.8656,0.8634,0.8702,0.8694,0.8693,0.8712,0.8721,0.8607,0.8659,0.8606,0.8526,0.8498,0.8484,0.8471,0.843,0.8414,0.8598,0.8598,0.8598,0,0.8417,0.8408,0.8473,0.8456,0.8464,0.8547,0.8515,0.8532,0.8565,0.8568,0.8607,0.8607,0.8633,0.8598,0.857,0.8575,0.8567,0.8602,0.8481,0.8468,0.8457,0.8419,0.8404,0.8592,0.8592,0.8593,0.8594,0,0.8303,0.8296,0.8266,0.8297,0.8302,0.8277,0.8337,0.8334,0.8377,0.8413,0.8389,0.8423,0.8434,0.8429,0.847,0.8399,0.8419,0.8468,0.8536,0.8431,0.8397,0.8383,0.8582,0.8585,0.8586,0.8588,0,0,0.8112,0.818,0.8168,0.8183,0.8227,0.8222,0.82,0.8213,0.8208,0.8228,0.8211,0.8208,0.8253,0.8263,0.8307,0.8283,0.8191,0.8335,0.8337,0.8307,0.8114,0.8077,0.8059,0.8225,0.8223,0.8221,0.8112,0,0.8002,0.7971,0.8028,0.7983,0.7976,0.8054,0.8035,0.8059,0.8092,0.809,0.8126,0.8123,0.8183,0.819,0.817,0.8206,0.8153,0.8215,0.8209,0.8208,0.82,0.8042,0.8003,0.7898,0.8098,0.8096,0.8095,0,0.787,0.7884,0.7838,0.7884,0.7883,0.7865,0.7882,0.7879,0.7907,0.7933,0.7944,0.7996,0.7977,0.8041,0.8015,0.8056,0.8057,0.8074,0.8072,0.8074,0.8145,0.8039,0.7867,0.7851,0.8074,0.8076,0.8077,0,0.7735,0.7742,0.7716,0.7726,0.778,0.7765,0.7786,0.7818,0.7822,0.7835,0.7839,0.7849,0.7854,0.786,0.7913,0.7955,0.788,0.795,0.79,0.7898,0.7881,0.7881,0.7706,0.788,0.7881,0.7881,0.7881,0,0.7606,0.7575,0.7656,0.764,0.7606,0.7672,0.7637,0.7666,0.7693,0.7683,0.7751,0.7739,0.781,0.7805,0.7846,0.7818,0.782,0.7839,0.785,0.7833,0.783,0.7835,0.7843,0.7877,0.7878,0.7879,0.7879,0,0.7451,0.7504,0.748,0.7533,0.7545,0.7518,0.7563,0.7549,0.7586,0.7572,0.7572,0.763,0.7629,0.7682,0.769,0.7718,0.7671,0.7696,0.7662,0.767,0.7617,0.7621,0.7439,0.7418,0.7605,0.7603,0.7602,0,0.7365,0.7343,0.7393,0.7392,0.741,0.7407,0.7411,0.7475,0.7476,0.7507,0.7489,0.7493,0.75,0.7493,0.7535,0.7541,0.7566,0.7502,0.7568,0.7551,0.7565,0.7566,0.7564,0.7488,0.7485,0.7484,0.7482,0,0.7208,0.7235,0.724,0.7253,0.7257,0.727,0.7287,0.7282,0.7351,0.7349,0.7349,0.7354,0.7363,0.7366,0.7381,0.7401,0.7452,0.7461,0.745,0.7432,0.7414,0.7423,0.7625,0.7465,0.7467,0.7468,0.7469,0.7469,0.7085,0.7069,0.7102,0.7104,0.7124,0.7139,0.7129,0.7165,0.7166,0.718,0.7216,0.721,0.7238,0.7263,0.7278,0.7273,0.7305,0.7289,0.7285,0.728,0.727,0.7414,0.7276,0.7277,0.7277,0.7278,0.7278,0,0.6931,0.6956,0.6958,0.6981,0.6982,0.7031,0.7053,0.7051,0.7045,0.7067,0.7072,0.7071,0.7074,0.7116,0.7124,0.7111,0.7135,0.7111,0.7113,0.7117,0.7241,0.725,0.7092,0.7092,0.7092,0.7092,0.7092,0.7092,0.6851,0.6827,0.6858,0.6843,0.6868,0.6863,0.6871,0.6885,0.6903,0.6899,0.6903,0.693,0.696,0.697,0.6975,0.6987,0.6986,0.6954,0.6974,0.709,0.7108,0.7125,0.7134,0.6954,0.6954,0.685,0.6849,0.6849]}]]